Fort Atkinson, Wisconsin, United States (53538)
Lat: 42.93N, Lon: 88.84W
Wx Zone: WIZ064
Local Info
Past Weather Observations for Saturday, June 27, 2015

NOTE: This archive is for the closest National Weather Service station to Fort Atkinson. Information may differ from the station used for current weather conditions.

Click here for Long-term Archive

Time Weather Temperature Dewpoint Humidity Pressure Winds Precip Visibility
23:55
Clear
54°F / 12°C 54°F / 12°C 100% 29.95 in
(1014 mb)
Calm - 10SM
23:35
Clear
54°F / 12°C 54°F / 12°C 100% 29.95 in
(1014 mb)
Calm - 10SM
23:15
Clear
54°F / 12°C 54°F / 12°C 100% 29.95 in
(1014 mb)
Calm - 10SM
22:55
Clear
54°F / 12°C 54°F / 12°C 100% 29.95 in
(1014 mb)
Calm - 10SM
22:35
Clear
54°F / 12°C 54°F / 12°C 100% 29.95 in
(1014 mb)
Calm - 10SM
22:15
Clear
55°F / 13°C 54°F / 12°C 94% 29.95 in
(1014 mb)
Calm - 10SM
21:55
Clear
57°F / 14°C 54°F / 12°C 88% 29.95 in
(1014 mb)
Calm - 10SM
21:35
Clear
55°F / 13°C 54°F / 12°C 94% 29.95 in
(1014 mb)
Calm - 10SM
21:15
Clear
59°F / 15°C 52°F / 11°C 77% 29.98 in
(1015 mb)
Calm - 10SM
20:55
Clear
57°F / 14°C 54°F / 12°C 88% 29.95 in
(1014 mb)
Calm - 10SM
20:35
Clear
61°F / 16°C 50°F / 10°C 68% 29.98 in
(1015 mb)
Calm - 10SM
20:15
Clear
61°F / 16°C 52°F / 11°C 72% 29.98 in
(1015 mb)
Calm - 10SM
19:55
Clear
66°F / 19°C 50°F / 10°C 56% 29.95 in
(1014 mb)
Calm - 10SM
19:35
Clear
68°F / 20°C 50°F / 10°C 53% 29.98 in
(1015 mb)
Calm - 10SM
19:15
Clear
70°F / 21°C 50°F / 10°C 50% 29.98 in
(1015 mb)
Calm - 10SM
18:55
Clear
70°F / 21°C 50°F / 10°C 50% 29.98 in
(1015 mb)
Calm - 10SM
18:35
Clear
72°F / 22°C 50°F / 10°C 47% 29.98 in
(1015 mb)
NNE 4.6 mph
(NNE 7 kph)
- 10SM
18:15
Clear
73°F / 23°C 50°F / 10°C 44% 29.98 in
(1015 mb)
N 8.1 mph
(N 13 kph)
- 10SM
17:55
Clear
73°F / 23°C 48°F / 9°C 41% 29.98 in
(1015 mb)
N 5.8 mph
(N 9 kph)
- 10SM
17:35
Clear
73°F / 23°C 48°F / 9°C 41% 29.98 in
(1015 mb)
NNW 9.2 mph
(NNW 15 kph)
- 10SM
17:15
Clear
75°F / 24°C 48°F / 9°C 39% 29.98 in
(1015 mb)
N 8.1 mph
(N 13 kph)
- 10SM
16:55
Clear
75°F / 24°C 48°F / 9°C 39% 29.98 in
(1015 mb)
N 9.2 mph
(N 15 kph)
- 10SM
16:35
Clear
75°F / 24°C 48°F / 9°C 39% 29.98 in
(1015 mb)
N 4.6 mph
(N 7 kph)
- 10SM
16:15
Clear
75°F / 24°C 48°F / 9°C 39% 29.98 in
(1015 mb)
NNW 9.2 mph
(NNW 15 kph)
- 10SM
15:55
Clear
75°F / 24°C 46°F / 8°C 36% 29.98 in
(1015 mb)
N 8.1 mph
(N 13 kph)
- 10SM
15:35
Clear
77°F / 25°C 48°F / 9°C 36% 30.01 in
(1016 mb)
NW 10.4 mph
(NW 17 kph)
- 10SM
15:15
Partly Cloudy
77°F / 25°C 48°F / 9°C 36% 30.01 in
(1016 mb)
NNW 10.4 mph
(NNW 17 kph)
- 10SM
14:55
Partly Cloudy
77°F / 25°C 50°F / 10°C 39% 30.01 in
(1016 mb)
NW 9.2 mph
(NW 15 kph)
- 10SM
14:35
Mostly Cloudy
77°F / 25°C 50°F / 10°C 39% 30.01 in
(1016 mb)
NNW 8.1 mph
(NNW 13 kph)
- 10SM
14:15
Partly Cloudy
75°F / 24°C 50°F / 10°C 41% 30.01 in
(1016 mb)
N 4.6 mph
(N 7 kph)
- 10SM
13:55
Mostly Cloudy
75°F / 24°C 50°F / 10°C 41% 30.01 in
(1016 mb)
ENE 3.5 mph
(ENE 6 kph)
- 10SM
13:35
Mostly Cloudy
75°F / 24°C 50°F / 10°C 41% 30.01 in
(1016 mb)
N 4.6 mph
(N 7 kph)
- 10SM
13:15
Partly Cloudy
75°F / 24°C 52°F / 11°C 44% 30.04 in
(1017 mb)
Calm - 10SM
12:55
Partly Cloudy
75°F / 24°C 52°F / 11°C 44% 30.04 in
(1017 mb)
NNW 4.6 mph
(NNW 7 kph)
- 10SM
12:35
Partly Cloudy
75°F / 24°C 52°F / 11°C 44% 30.04 in
(1017 mb)
NE 8.1 mph
(NE 13 kph)
- 10SM
12:15
Clear
75°F / 24°C 50°F / 10°C 41% 30.04 in
(1017 mb)
N 5.8 mph
(N 9 kph)
- 10SM
11:55
Clear
75°F / 24°C 50°F / 10°C 41% 30.04 in
(1017 mb)
ENE 5.8 mph
(ENE 9 kph)
- 10SM
11:35
Clear
75°F / 24°C 50°F / 10°C 41% 30.04 in
(1017 mb)
E 8.1 mph
(E 13 kph)
- 10SM
11:15
Clear
75°F / 24°C 50°F / 10°C 41% 30.04 in
(1017 mb)
N 6.9 mph
(N 11 kph)
- 10SM
10:55
Clear
73°F / 23°C 50°F / 10°C 44% 30.04 in
(1017 mb)
NE 8.1 mph
(NE 13 kph)
- 10SM
10:35
Clear
73°F / 23°C 48°F / 9°C 41% 30.04 in
(1017 mb)
NNE 10.4 mph
(NNE 17 kph)
- 10SM
10:15
Clear
73°F / 23°C 50°F / 10°C 44% 30.04 in
(1017 mb)
NE 10.4 mph
(NE 17 kph)
- 10SM
09:55
Clear
73°F / 23°C 50°F / 10°C 44% 30.04 in
(1017 mb)
NE 11.5 mph
(NE 19 kph)
- 10SM
09:35
Clear
72°F / 22°C 52°F / 11°C 50% 30.04 in
(1017 mb)
NE 9.2 mph
(NE 15 kph)
- 10SM
09:15
Clear
72°F / 22°C 52°F / 11°C 50% 30.04 in
(1017 mb)
NE 6.9 mph
(NE 11 kph)
- 10SM
08:55
Clear
70°F / 21°C 52°F / 11°C 53% 30.04 in
(1017 mb)
NE 11.5 mph
(NE 19 kph)
- 10SM
08:35
Clear
68°F / 20°C 52°F / 11°C 56% 30.04 in
(1017 mb)
NNE 4.6 mph
(NNE 7 kph)
- 10SM
08:15
Clear
68°F / 20°C 54°F / 12°C 60% 30.04 in
(1017 mb)
N 6.9 mph
(N 11 kph)
- 10SM
07:55
Clear
64°F / 18°C 54°F / 12°C 68% 30.04 in
(1017 mb)
N 4.6 mph
(N 7 kph)
- 10SM
07:35
Clear
63°F / 17°C 54°F / 12°C 73% 30.04 in
(1017 mb)
NNE 5.8 mph
(NNE 9 kph)
- 10SM
07:15
Partly Cloudy
61°F / 16°C 54°F / 12°C 77% 30.04 in
(1017 mb)
N 4.6 mph
(N 7 kph)
- 10SM
06:55
Clear
61°F / 16°C 55°F / 13°C 83% 30.04 in
(1017 mb)
N 4.6 mph
(N 7 kph)
- 10SM
06:35
Clear
59°F / 15°C 55°F / 13°C 88% 30.04 in
(1017 mb)
NNW 4.6 mph
(NNW 7 kph)
- 10SM
06:15
Clear
59°F / 15°C 55°F / 13°C 88% 30.04 in
(1017 mb)
N 3.5 mph
(N 6 kph)
- 10SM
05:55
Clear
59°F / 15°C 55°F / 13°C 88% 30.04 in
(1017 mb)
Calm - 10SM
05:35
Clear
57°F / 14°C 57°F / 14°C 100% 30.04 in
(1017 mb)
N 3.5 mph
(N 6 kph)
- 10SM
05:15
Clear
55°F / 13°C 55°F / 13°C 100% 30.04 in
(1017 mb)
Calm - 10SM
04:55
Clear
55°F / 13°C 55°F / 13°C 100% 30.04 in
(1017 mb)
Calm - 10SM
04:35
Clear
55°F / 13°C 55°F / 13°C 100% 30.04 in
(1017 mb)
Calm - 10SM
04:15
Clear
55°F / 13°C 55°F / 13°C 100% 30.01 in
(1016 mb)
Calm - 10SM
03:55
Clear
55°F / 13°C 55°F / 13°C 100% 30.01 in
(1016 mb)
Calm - 10SM
03:35
Clear
57°F / 14°C 55°F / 13°C 94% 30.01 in
(1016 mb)
Calm - 10SM
03:15
Clear
57°F / 14°C 55°F / 13°C 94% 30.01 in
(1016 mb)
N 3.5 mph
(N 6 kph)
- 10SM
02:55
Partly Cloudy
59°F / 15°C 57°F / 14°C 94% 30.01 in
(1016 mb)
Calm - 10SM
02:35
Overcast
59°F / 15°C 57°F / 14°C 94% 30.01 in
(1016 mb)
NNE 3.5 mph
(NNE 6 kph)
- 10SM
02:15
Mostly Cloudy
59°F / 15°C 57°F / 14°C 94% 30.01 in
(1016 mb)
NNE 3.5 mph
(NNE 6 kph)
- 10SM
01:55
Mostly Cloudy
61°F / 16°C 57°F / 14°C 88% 30.04 in
(1017 mb)
NE 3.5 mph
(NE 6 kph)
- 10SM
01:35
Overcast
61°F / 16°C 57°F / 14°C 88% 30.04 in
(1017 mb)
NE 4.6 mph
(NE 7 kph)
- 10SM
01:15
Mostly Cloudy
59°F / 15°C 57°F / 14°C 94% 30.04 in
(1017 mb)
NE 4.6 mph
(NE 7 kph)
- 10SM
00:55
Partly Cloudy
61°F / 16°C 57°F / 14°C 88% 30.04 in
(1017 mb)
Calm - 10SM
00:35
Overcast
61°F / 16°C 57°F / 14°C 88% 30.04 in
(1017 mb)
Calm - 10SM
00:15
Mostly Cloudy
61°F / 16°C 57°F / 14°C 88% 30.04 in
(1017 mb)
NE 4.6 mph
(NE 7 kph)
- 10SM
Time Weather Temperature Dewpoint Humidity Pressure Winds Precip Visibility


Weather for websites

WeatherForYou.com, LLC is not responsible for any damages or problems caused by this service. Current weather conditions are obtained from the closest station including government and personal stations which may have varying degrees of accuracy. Weather forecasts are derived from the NOAA NDFD. Like all things, this site belongs to Jesus Christ... He just trusts us to maintain it. If you have any questions or comments email webmaster@weatherforyou.com

Copyright © 2015, WeatherForYou.com LLC. All rights reserved.